EW2974 Weather Reports


Display with metric or nautical units.
time (UTC)temp
F
wind
direction
speed
MPH
gust
MPH
rain 1hr
in
rain 24hr
in
rain mn
in
humidity
%
barometer
mb
20260507165904 59 206 1.0 6.0 0.00 0.01 0.00 50 1010.3
20260507165404 57 5 0.0 1.0 0.00 0.01 0.00 47 1010.5
20260507164904 57 262 3.0 8.0 0.00 0.01 0.00 46 1010.5
20260507164404 57 252 1.0 8.0 0.00 0.01 0.00 44 1010.6
20260507163904 58 238 6.0 14.0 0.00 0.01 0.00 45 1010.5
20260507162404 57 269 3.0 14.0 0.00 0.01 0.00 46 1010.6
20260507161904 58 245 1.0 5.0 0.00 0.01 0.00 44 1010.5
20260507161404 58 220 1.0 5.0 0.00 0.01 0.00 48 1010.5
20260507160904 57 240 3.0 6.0 0.00 0.01 0.00 51 1010.7
20260507160404 57 253 7.0 12.0 0.00 0.01 0.00 49 1010.8
20260507155404 56 246 5.0 14.0 0.00 0.01 0.00 47 1010.9
20260507154904 55 272 4.0 9.0 0.00 0.01 0.00 54 1011.0
20260507154404 55 250 1.0 9.0 0.00 0.01 0.00 52 1011.0
20260507153904 56 264 3.0 8.0 0.00 0.01 0.00 48 1011.0
20260507153404 55 265 3.0 14.0 0.00 0.01 0.00 50 1011.1
20260507152904 56 275 9.0 14.0 0.00 0.01 0.00 50 1011.0
20260507152404 55 261 0.0 5.0 0.00 0.01 0.00 55 1011.0
20260507151904 54 261 0.0 3.0 0.00 0.01 0.00 52 1011.1
20260507150404 56 266 7.0 13.0 0.00 0.01 0.00 51 1011.0
20260507145904 55 254 2.0 6.0 0.00 0.01 0.00 54 1011.0
20260507145404 55 218 3.0 9.0 0.00 0.01 0.00 53 1011.0
20260507144904 56 189 3.0 6.0 0.00 0.01 0.00 55 1011.0
20260507144404 56 248 2.0 8.0 0.00 0.01 0.00 55 1011.0
20260507143904 56 273 3.0 8.0 0.00 0.01 0.00 55 1011.0
20260507143404 55 271 2.0 9.0 0.00 0.01 0.00 58 1011.0
20260507142904 55 274 7.0 12.0 0.00 0.01 0.00 59 1011.0
20260507142404 54 157 5.0 9.0 0.00 0.01 0.00 62 1011.0
20260507141904 54 218 1.0 6.0 0.00 0.01 0.00 60 1011.2
20260507141404 54 213 2.0 9.0 0.00 0.01 0.00 64 1011.3
20260507140905 53 166 5.0 9.0 0.00 0.01 0.00 63 1011.3
20260507140404 53 213 3.0 6.0 0.00 0.01 0.00 66 1011.4
20260507135904 52 201 3.0 8.0 0.00 0.01 0.00 64 1011.5
20260507135404 52 223 3.0 6.0 0.00 0.01 0.00 66 1011.6
20260507134904 52 190 0.0 3.0 0.00 0.01 0.00 66 1011.6
20260507134404 52 191 3.0 5.0 0.00 0.01 0.00 67 1011.6
20260507133904 52 156 4.0 8.0 0.00 0.01 0.00 69 1011.7
20260507133404 51 221 0.0 3.0 0.00 0.01 0.00 66 1011.8
20260507132904 51 200 0.0 5.0 0.00 0.01 0.00 67 1011.8
20260507132404 51 195 1.0 5.0 0.00 0.01 0.00 68 1011.9
20260507131404 50 240 0.0 6.0 0.00 0.01 0.00 71 1011.9
20260507130904 50 251 2.0 5.0 0.00 0.01 0.00 69 1011.9
20260507130404 49 237 3.0 5.0 0.00 0.01 0.00 71 1011.9
20260507125904 49 219 1.0 3.0 0.00 0.01 0.00 74 1011.8
20260507125404 48 263 0.0 3.0 0.00 0.01 0.00 76 1012.0
20260507124903 48 267 0.0 3.0 0.00 0.01 0.00 76 1012.0
20260507124404 47 267 0.0 5.0 0.00 0.01 0.00 77 1012.0
20260507123904 46 268 5.0 6.0 0.00 0.01 0.00 77 1012.0
20260507123404 46 256 1.0 5.0 0.00 0.01 0.00 80 1012.0
20260507122904 45 229 2.0 6.0 0.00 0.01 0.00 80 1011.9
20260507122404 44 184 1.0 3.0 0.00 0.01 0.00 82 1012.0
20260507121404 43 164 1.0 5.0 0.00 0.01 0.00 85 1012.1
20260507120404 42 143 0.0 0.0 0.00 0.01 0.00 90 1012.2
20260507115904 41 139 0.0 1.0 0.00 0.01 0.00 91 1012.2
20260507115404 40 134 0.0 0.0 0.00 0.01 0.00 92 1012.3
20260507114404 40 133 0.0 0.0 0.00 0.01 0.00 92 1012.3
20260507113904 39 133 0.0 0.0 0.00 0.01 0.00 92 1012.3
20260507113404 39 133 0.0 0.0 0.00 0.01 0.00 92 1012.3
20260507112903 39 133 0.0 0.0 0.00 0.01 0.00 92 1012.2
20260507112404 39 133 0.0 0.0 0.00 0.01 0.00 92 1012.3
20260507111904 39 133 0.0 0.0 0.00 0.01 0.00 92 1012.3
20260507111404 39 133 0.0 0.0 0.00 0.01 0.00 93 1012.1
20260507110904 39 133 0.0 0.0 0.00 0.01 0.00 93 1012.1
20260507110405 38 133 0.0 0.0 0.00 0.01 0.00 92 1012.2
20260507105904 38 133 0.0 0.0 0.00 0.01 0.00 93 1012.0
20260507105404 38 133 0.0 0.0 0.00 0.01 0.00 92 1012.0
20260507104404 38 133 0.0 0.0 0.00 0.01 0.00 93 1011.9
20260507103903 38 133 0.0 0.0 0.00 0.01 0.00 92 1011.8
20260507103404 38 133 0.0 0.0 0.00 0.01 0.00 92 1011.9
20260507102904 38 133 0.0 0.0 0.00 0.01 0.00 92 1011.9
20260507101904 38 133 0.0 0.0 0.00 0.02 0.00 92 1011.9
20260507101404 38 133 0.0 0.0 0.00 0.02 0.00 92 1011.8
20260507100904 38 133 0.0 0.0 0.00 0.03 0.00 92 1011.7
20260507100404 38 133 0.0 0.0 0.00 0.03 0.00 92 1011.6
20260507095904 38 133 0.0 0.0 0.00 0.04 0.00 92 1011.6
20260507094903 38 133 0.0 0.0 0.00 0.05 0.00 92 1011.6
20260507094404 38 133 0.0 0.0 0.00 0.06 0.00 93 1011.6
20260507093904 38 133 0.0 0.0 0.00 0.07 0.00 93 1011.6
20260507093403 38 133 0.0 0.0 0.00 0.08 0.00 93 1011.7
20260507092904 38 133 0.0 0.0 0.00 0.08 0.00 92 1011.7
20260507092404 37 133 0.0 0.0 0.00 0.08 0.00 92 1011.7
20260507091404 37 133 0.0 0.0 0.00 0.09 0.00 92 1011.9
20260507090904 37 133 0.0 0.0 0.00 0.09 0.00 92 1011.9
20260507085904 37 133 0.0 0.0 0.00 0.09 0.00 92 1011.8
20260507085404 37 133 0.0 0.0 0.00 0.10 0.00 91 1011.7
20260507084904 37 133 0.0 0.0 0.00 0.10 0.00 91 1011.7
20260507084404 37 133 0.0 0.0 0.00 0.11 0.00 91 1011.8
20260507083904 38 133 0.0 0.0 0.00 0.12 0.00 91 1011.7
20260507083404 38 133 0.0 0.0 0.00 0.13 0.00 91 1011.7
20260507082905 38 133 0.0 0.0 0.00 0.14 0.00 91 1011.8
20260507082405 38 133 0.0 0.0 0.00 0.16 0.00 91 1011.8
20260507081904 38 133 0.0 0.0 0.00 0.18 0.00 91 1011.9
20260507081404 38 133 0.0 0.0 0.00 0.19 0.00 91 1012.0
20260507080904 38 133 0.0 0.0 0.00 0.21 0.00 91 1012.0
20260507080404 38 133 0.0 0.0 0.00 0.22 0.00 91 1011.9
20260507075904 38 133 0.0 0.0 0.00 0.23 0.00 91 1012.0
20260507075403 38 133 0.0 0.0 0.00 0.25 0.00 91 1011.9
20260507074904 38 133 0.0 0.0 0.00 0.26 0.00 91 1012.0
20260507074404 38 133 0.0 0.0 0.00 0.27 0.00 90 1012.0
20260507073904 39 133 0.0 0.0 0.00 0.28 0.00 90 1012.0
20260507073404 39 133 0.0 0.0 0.00 0.30 0.00 90 1012.0
20260507072403 39 133 0.0 0.0 0.00 0.31 0.00 90 1012.0
20260507071903 39 133 0.0 0.0 0.00 0.32 0.00 90 1011.9
20260507071404 39 133 0.0 0.0 0.00 0.33 0.00 89 1012.0
20260507070904 39 133 0.0 0.0 0.00 0.34 0.00 89 1012.0
20260507070404 39 133 0.0 0.0 0.00 0.35 0.00 89 1012.0
20260507065904 39 133 0.0 0.0 0.00 0.35 0.00 89 1011.9
20260507065403 40 133 0.0 0.0 0.00 0.36 0.00 89 1012.0
20260507064403 40 133 0.0 0.0 0.00 0.38 0.00 88 1012.1
20260507063903 40 133 0.0 0.0 0.00 0.38 0.00 88 1012.2
20260507063403 40 133 0.0 0.0 0.00 0.39 0.00 87 1012.2
20260507062903 41 133 0.0 0.0 0.00 0.40 0.00 87 1012.2
20260507061904 41 133 0.0 0.0 0.00 0.41 0.00 86 1012.4
20260507061404 41 133 0.0 0.0 0.00 0.42 0.00 86 1012.5
20260507060903 42 133 0.0 0.0 0.00 0.43 0.00 85 1012.4
20260507060404 42 133 0.0 0.0 0.00 0.43 0.00 85 1012.4
20260507055405 42 133 0.0 0.0 0.00 0.45 0.00 85 1012.4
20260507053403 43 133 0.0 0.0 0.00 0.46 0.00 83 1012.5
20260507052905 43 133 0.0 0.0 0.00 0.47 0.00 83 1012.5
20260507052405 43 133 0.0 0.0 0.00 0.47 0.00 83 1012.5
20260507051905 43 133 0.0 0.0 0.00 0.48 0.00 83 1012.5
20260507051405 43 133 0.0 0.0 0.00 0.48 0.00 82 1012.4
20260507050905 43 133 0.0 0.0 0.00 0.49 0.00 83 1012.5
20260507050405 43 133 0.0 0.0 0.00 0.49 0.00 82 1012.6
20260507045905 43 133 0.0 0.0 0.00 0.50 0.00 82 1012.6
20260507045405 43 133 0.0 0.0 0.00 0.50 0.00 81 1012.6
20260507044905 44 133 0.0 0.0 0.00 0.51 0.00 81 1012.7
20260507044405 44 133 0.0 0.0 0.00 0.51 0.00 81 1012.8
20260507042904 44 133 0.0 0.0 0.00 0.53 0.00 78 1012.9
20260507042405 44 133 0.0 0.0 0.00 0.54 0.00 78 1013.0
20260507041905 44 133 0.0 0.0 0.00 0.54 0.00 78 1013.1
20260507041405 44 133 0.0 0.0 0.00 0.55 0.00 77 1013.1
20260507040905 44 133 0.0 0.0 0.00 0.56 0.00 77 1013.1
20260507040405 44 133 0.0 0.0 0.00 0.57 0.00 75 1013.2
20260507035405 45 133 0.0 0.0 0.00 0.58 0.57 74 1013.2
20260507033905 46 133 0.0 0.0 0.00 0.59 0.57 71 1013.2
20260507033405 46 133 0.0 0.0 0.00 0.60 0.57 71 1013.2
20260507032905 46 133 0.0 0.0 0.00 0.61 0.57 71 1013.1
20260507032404 46 133 0.0 0.0 0.00 0.61 0.57 71 1013.1
20260507031905 46 133 0.0 0.0 0.00 0.62 0.57 72 1013.0
20260507031405 47 133 0.0 0.0 0.00 0.62 0.57 72 1013.0
20260507025405 47 133 0.0 0.0 0.00 0.67 0.57 72 1013.3
20260507024905 47 133 0.0 0.0 0.00 0.68 0.57 71 1013.1
20260507023904 47 133 0.0 0.0 0.00 0.70 0.57 70 1013.1
20260507022905 47 133 0.0 0.0 0.00 0.70 0.57 69 1013.1
20260507022405 47 133 0.0 0.0 0.00 0.71 0.57 70 1013.1
20260507021905 47 133 0.0 0.0 0.00 0.71 0.57 70 1013.0
20260507021405 47 133 0.0 0.0 0.00 0.71 0.57 70 1012.9
20260507020405 47 133 0.0 0.0 0.00 0.72 0.57 70 1012.9
20260507015405 48 133 0.0 0.0 0.00 0.73 0.57 68 1012.7
20260507014905 48 133 0.0 0.0 0.00 0.74 0.57 68 1012.6
20260507014405 48 133 0.0 0.0 0.00 0.74 0.57 68 1012.5
20260507013904 48 133 0.0 0.0 0.00 0.74 0.57 67 1012.5
20260507013405 48 133 0.0 0.0 0.00 0.74 0.57 70 1012.4
20260507012905 48 133 0.0 0.0 0.00 0.74 0.57 70 1012.4
20260507012405 48 133 0.0 0.0 0.00 0.75 0.57 68 1012.3
20260507011905 48 133 0.0 0.0 0.00 0.76 0.57 67 1012.3
20260507011405 48 133 0.0 0.0 0.00 0.76 0.57 67 1012.4
20260507010406 49 133 0.0 0.0 0.01 0.77 0.57 69 1012.3
20260507005905 49 133 0.0 0.0 0.01 0.77 0.57 68 1012.3
20260507005405 49 133 0.0 0.0 0.01 0.77 0.57 65 1012.3
20260507004905 49 133 0.0 0.0 0.01 0.77 0.57 65 1012.2
20260507004405 49 133 0.0 0.0 0.01 0.77 0.57 65 1012.2
20260507003405 49 133 0.0 0.0 0.01 0.78 0.57 65 1012.2
20260507002905 49 133 0.0 0.0 0.01 0.79 0.57 61 1012.0
20260507001405 50 133 0.0 0.0 0.01 0.83 0.57 63 1012.0
20260507000905 50 133 0.0 0.0 0.00 0.83 0.56 64 1012.1
20260507000405 50 133 0.0 0.0 0.00 0.86 0.56 63 1012.1
20260506235405 50 133 0.0 0.0 0.00 1.03 0.56 63 1012.3
20260506234905 50 133 0.0 0.0 0.00 1.03 0.56 62 1012.2
20260506233905 50 133 0.0 0.0 0.00 1.04 0.56 59 1012.0
20260506232905 51 133 0.0 0.0 0.00 1.04 0.56 59 1012.0
20260506232404 51 149 0.0 0.0 0.00 1.05 0.56 54 1011.8
20260506231905 51 150 0.0 0.0 0.00 1.05 0.56 57 1011.8
20260506231404 51 149 0.0 0.0 0.00 1.05 0.56 57 1011.9
20260506230405 51 150 0.0 0.0 0.00 1.05 0.56 58 1012.0
20260506225904 51 149 0.0 0.0 0.00 1.05 0.56 56 1011.8
20260506224905 51 173 0.0 0.0 0.00 1.05 0.56 56 1011.7
20260506223905 51 161 0.0 0.0 0.00 1.06 0.56 54 1011.4
20260506223405 51 161 0.0 0.0 0.00 1.06 0.56 53 1011.4
20260506222905 52 168 0.0 0.0 0.00 1.06 0.56 56 1011.4
20260506222405 52 168 0.0 0.0 0.00 1.06 0.56 56 1011.5
20260506221905 52 168 0.0 0.0 0.00 1.06 0.56 58 1011.5
20260506221404 52 169 0.0 1.0 0.00 1.06 0.56 53 1011.4
20260506220405 52 283 0.0 0.0 0.00 1.06 0.56 56 1011.3
20260506214905 52 271 0.0 0.0 0.00 1.06 0.56 51 1011.0
20260506213905 53 57 0.0 3.0 0.00 1.06 0.56 51 1010.9
20260506213404 53 234 2.0 6.0 0.00 1.06 0.56 48 1010.9
20260506212905 53 267 0.0 1.0 0.00 1.06 0.56 52 1010.8
20260506212405 53 10 0.0 0.0 0.00 1.06 0.56 47 1010.8
20260506211905 53 247 1.0 6.0 0.00 1.06 0.56 51 1010.7
20260506211405 54 237 0.0 0.0 0.00 1.06 0.56 49 1010.7
20260506210904 54 244 0.0 1.0 0.00 1.06 0.56 47 1010.8
20260506210405 54 230 0.0 0.0 0.00 1.06 0.56 50 1010.7
20260506205904 54 231 0.0 5.0 0.00 1.07 0.56 53 1010.6
20260506205405 54 209 0.0 0.0 0.00 1.07 0.56 53 1010.4
20260506204905 54 197 0.0 0.0 0.00 1.08 0.56 51 1010.4
20260506204404 54 202 0.0 0.0 0.00 1.08 0.56 50 1010.5
20260506203904 54 202 0.0 0.0 0.00 1.08 0.56 53 1010.4
20260506203405 54 202 0.0 0.0 0.00 1.08 0.56 52 1010.4
20260506202905 54 22 0.0 0.0 0.00 1.08 0.56 51 1010.3
20260506202405 54 40 1.0 5.0 0.00 1.08 0.56 49 1010.3
20260506201905 55 237 0.0 1.0 0.00 1.08 0.56 49 1010.5
20260506201404 55 321 0.0 0.0 0.00 1.08 0.56 52 1010.4
20260506200905 55 32 0.0 0.0 0.00 1.08 0.56 55 1010.0
20260506200405 55 256 0.0 0.0 0.00 1.08 0.56 55 1010.0
20260506195905 54 257 0.0 0.0 0.00 1.08 0.56 54 1010.1
20260506195405 54 257 0.0 0.0 0.00 1.08 0.56 51 1010.3
20260506194904 54 250 2.0 9.0 0.00 1.08 0.56 49 1010.4
20260506194405 54 235 0.0 5.0 0.00 1.08 0.56 51 1010.4
20260506193905 54 107 1.0 12.0 0.00 1.08 0.56 56 1010.3
20260506193405 55 336 0.0 0.0 0.00 1.08 0.56 53 1010.2
20260506192904 55 243 0.0 0.0 0.00 1.08 0.56 51 1010.4
20260506192405 55 233 0.0 0.0 0.00 1.08 0.56 49 1010.4
20260506191904 55 48 0.0 5.0 0.00 1.08 0.56 53 1010.3
20260506191404 56 283 1.0 8.0 0.00 1.08 0.56 52 1010.3
20260506190905 56 252 1.0 9.0 0.00 1.08 0.56 51 1010.3
20260506190405 56 252 1.0 6.0 0.00 1.08 0.56 51 1010.2
20260506185404 57 101 0.0 9.0 0.00 1.08 0.56 56 1010.0
20260506184905 57 40 0.0 3.0 0.00 1.08 0.56 54 1010.0
20260506184405 57 34 0.0 6.0 0.00 1.08 0.56 55 1010.0
20260506183905 57 327 1.0 6.0 0.00 1.08 0.56 55 1009.8
20260506182905 58 243 1.0 6.0 0.00 1.08 0.56 57 1009.9
20260506182405 57 280 1.0 14.0 0.00 1.08 0.56 55 1010.0
20260506181904 57 163 1.0 8.0 0.00 1.08 0.56 56 1009.8
20260506181404 56 285 0.0 0.0 0.00 1.08 0.56 56 1009.9
20260506180404 57 264 1.0 9.0 0.00 1.08 0.56 57 1009.8
20260506175905 57 67 0.0 1.0 0.00 1.08 0.56 57 1009.9
20260506175405 57 36 0.0 13.0 0.00 1.08 0.56 58 1010.0
20260506174405 55 248 2.0 12.0 0.00 1.08 0.56 59 1010.0
20260506173904 56 51 0.0 0.0 0.00 1.08 0.56 58 1009.9
20260506173405 56 265 4.0 9.0 0.00 1.08 0.56 59 1009.7
20260506172905 55 260 0.0 3.0 0.00 1.08 0.56 62 1009.7
20260506171904 54 260 1.0 12.0 0.00 1.08 0.56 66 1009.8
20260506171404 54 238 0.0 0.0 0.00 1.08 0.56 66 1009.7
20260506170905 55 234 2.0 9.0 0.00 1.08 0.56 66 1009.7
20260506170405 55 91 0.0 5.0 0.00 1.08 0.56 66 1009.8